Regional Weather Roundup
Issued by NWS State College, PA

Home | Current Version | Previous Version | Text Only | Print | Product List | Glossary Off
Versions: 1 2 3 4 5 6 7 8 9 10 11 12 13 14 15 16 17 18 19 20 21 22 23 24 25 26 27 28 29 30 31 32 33 34 35 36 37 38 39 40 41 42 43 44 45 46 47 48 49 50

000
ASUS41 KCTP 280303
RWRCTP

REGIONAL WEATHER ROUNDUP
NATIONAL WEATHER SERVICE STATE COLLEGE PA
1100 PM EDT WED JUL 27 2016

Note: "fair" indicates few or no clouds below 12,000 feet with no
significant weather and/or obstructions to visibility.

* = STATION THAT DOES NOT REPORT PRECIPITATION /E.G. RAIN...SNOW...ETC/
    THUNDER OR FOG.

PAZ002>004-007>009-013>016-020>023-029>032-280400-
WESTERN PENNSYLVANIA

CITY           SKY/WX    TMP DP  RH WIND       PRES   REMARKS
ERIE           CLEAR     73  63  70 S6        29.95S
MEADVILLE      CLEAR     69  60  73 CALM      30.00R
FRANKLIN*      CLEAR     68  61  77 CALM      30.00S
NEW CASTLE     FAIR      70  64  81 CALM      29.98R
BEAVER COUNTY  NOT AVBL
BUTLER*        CLEAR     70  63  78 CALM      30.00R
PITTSBURGH INT PTCLDY    78  58  49 E5        29.96S
PITTSBURGH     CLEAR     80  58  46 E5        29.96S
INDIANA*       PTCLDY    70  61  73 CALM      30.02R
LATROBE        PTCLDY    72  66  83 CALM      29.98S
WASHINGTON CO* PTCLDY    73  68  83 CALM      29.97F
$$

PAZ004>006-010>012-017>019-024>028-033>037-041-042-045-046-049>053-280400-
CENTRAL PENNSYLVANIA

CITY           SKY/WX    TMP DP  RH WIND       PRES   REMARKS
BRADFORD       CLEAR     65  60  84 CALM      30.02F
DUBOIS         CLEAR     70  57  63 CALM      30.00S
CLEARFIELD     CLEAR     70  58  65 N6        29.99S
JOHNSTOWN      CLEAR     75  52  44 CALM      30.03S
ALTOONA        CLEAR     68  58  70 CALM      29.99R
STATE COLLEGE  CLEAR     73  59  59 CALM      29.97R
WILLIAMSPORT   CLEAR     73  62  68 CALM      29.92R
SELINSGROVE    CLEAR     68  68 100 CALM      29.93R
FT INDIANTOWN  CLEAR     71  63  77 N2        29.93S
CAPITAL CITY   CLEAR     79  67  66 CALM      29.92S
HARRISBURG     PTCLDY    81  69  67 E5        29.91S
YORK           CLEAR     74  68  81 SE5       29.93R
$$

PAZ038>040-043-044-047-048-054-055-060>062-067>071-280400-
EASTERN PENNSYLVANIA

CITY           SKY/WX    TMP DP  RH WIND       PRES   REMARKS
SCRANTON       CLEAR     74  61  63 E7        29.94F
MOUNT POCONO   CLEAR     62  59  90 CALM      30.00F
ALLENTOWN      CLEAR     73  63  70 CALM      29.93R
QUAKERTOWN*    CLEAR     73  66  78 CALM      29.95R
READING        CLEAR     79  63  57 CALM      29.92R
LANCASTER      CLEAR     75  64  68 CALM      29.93R
COATESVILLE    CLEAR     73  66  78 CALM      29.95S
POTTSTOWN      CLEAR     75  67  76 CALM      29.94R
BLUE BELL      CLEAR     70  68  94 CALM      29.91R
DOYLESTOWN     CLEAR     74  66  76 CALM      29.92S
WILLOW GROVE   NOT AVBL
NORTH PHILA    CLEAR     82  76  81 SE6       29.93R
PHILADELPHIA   PTCLDY    85  63  47 NW5       29.91S
$$




USA.gov is the U.S. government's official web portal to all federal, state and local government web resources and services.